Stations météo

Publicité
Ile Rousse, France (7753): Température de l'air & dewpoint: 11.12.2018 12:00:00 - 17.12.2018 12:00:00 (CET)Ile Rousse, France (7753): Vitesse du vent & gusts: 11.12.2018 12:00:00 - 17.12.2018 12:00:00 (CET)Ile Rousse, France (7753): Direction du vent: 11.12.2018 12:00:00 - 17.12.2018 12:00:00 (CET)Ile Rousse, France (7753): reduced air pressure: 11.12.2018 12:00:00 - 17.12.2018 12:00:00 (CET)Ile Rousse, France (7753): visibility: 11.12.2018 12:00:00 - 17.12.2018 12:00:00 (CET)Ile Rousse, France (7753): Quantités de précipitations: 11.12.2018 12:00:00 - 17.12.2018 12:00:00 (CET)
Date & Time tt [°C] td [°C] ff [km/h] ff [knt] fx [km/h] fx [knt] dd ppp [hPa] vv [km] rr [mm]
17.12.2018 12:00:00 8,8 7,1 30 16 47 26 NNE 1017,6 - 0,0
17.12.2018 11:00:00 9,1 7,4 34 18 44 24 NNW 1017,5 - 0,0
17.12.2018 10:00:00 9,5 7,8 34 18 50 27 N 1016,9 16 0,0
17.12.2018 09:00:00 9,0 7,8 39 21 55 30 N 1015,6 - 0,2
17.12.2018 08:00:00 9,7 8,8 34 18 44 24 N 1014,3 - 0,0
17.12.2018 07:00:00 9,8 8,4 13 7 29 16 NNE 1013,8 8 0,0
17.12.2018 06:00:00 9,5 8,3 29 16 37 20 NNE 1013,3 - 0,0
17.12.2018 05:00:00 10,3 9,4 33 18 60 33 NNW 1013,0 - 0,8
17.12.2018 04:00:00 10,8 9,6 31 17 54 29 WSW 1012,5 - 0,4
17.12.2018 03:00:00 10,8 9,2 36 19 64 35 WSW 1012,6 - 0,2
17.12.2018 02:00:00 10,5 9,6 31 17 48 26 SW 1012,3 - 0,8
17.12.2018 01:00:00 11,2 10,7 26 14 51 28 W 1012,4 - 0,6
17.12.2018 00:00:00 10,8 10,3 27 14 44 24 WSW 1012,2 - 0,4
16.12.2018 23:00:00 11,0 10,5 17 9 27 15 WSW 1012,3 - 1,0
16.12.2018 22:00:00 10,6 10,1 18 10 32 17 WNW 1012,2 - 2,1
16.12.2018 21:00:00 10,1 9,5 10 5 17 9 W 1011,6 - 4,8
16.12.2018 20:00:00 10,0 9,2 4 2 9 5 NW 1011,4 - 6,2
16.12.2018 19:00:00 9,8 9,0 8 4 22 12 SE 1011,4 6 5,2
16.12.2018 18:00:00 9,6 8,8 8 4 19 10 E 1012,2 - 6,0
16.12.2018 17:00:00 8,8 8,0 16 8 23 12 E 1013,0 - 8,1
16.12.2018 16:00:00 9,1 8,2 21 11 24 13 E 1013,7 10 4,0
16.12.2018 15:00:00 9,2 8,3 13 7 16 9 E 1014,4 - 0,4
16.12.2018 14:00:00 9,0 7,8 13 7 15 8 ESE 1015,2 20 0,8
16.12.2018 13:00:00 9,4 7,2 14 7 18 10 ESE 1016,1 - 0,8
16.12.2018 12:00:00 10,3 4,6 9 5 22 12 SSE 1016,8 - 0,0
16.12.2018 11:00:00 11,3 1,8 6 3 12 6 SE 1017,8 - 0,0
16.12.2018 10:00:00 11,1 0,5 8 4 12 6 ESE 1017,1 20 0,0
16.12.2018 09:00:00 10,1 -0,4 9 5 18 10 E 1017,3 - 0,0
16.12.2018 08:00:00 9,8 -0,4 11 6 15 8 SE 1017,4 - 0,0
16.12.2018 07:00:00 9,6 -0,1 10 6 15 8 SE 1017,9 20 0,0
16.12.2018 06:00:00 9,5 -0,7 10 5 17 9 ESE 1017,7 - 0,0
16.12.2018 05:00:00 9,1 -1,1 13 7 18 10 S 1017,7 - 0,0
16.12.2018 04:00:00 9,1 -0,5 10 6 19 10 SSE 1018,3 40 0,0
16.12.2018 03:00:00 8,9 1,3 6 3 16 9 SSW 1019,1 - 0,0
16.12.2018 02:00:00 8,8 1,0 14 7 18 10 SW 1018,9 - 0,0
16.12.2018 01:00:00 8,8 0,2 8 4 10 6 S 1019,3 - 0,0
16.12.2018 00:00:00 8,6 -0,7 9 5 12 6 SW 1019,4 - 0,0
15.12.2018 23:00:00 8,5 -1,1 3 2 7 4 SSW 1019,4 - 0,0
15.12.2018 22:00:00 8,7 -0,1 0 0 5 3 N 1019,3 - 0,0
15.12.2018 21:00:00 8,8 -0,3 2 1 5 3 SSW 1019,6 - 0,0
15.12.2018 20:00:00 8,8 0,0 5 3 6 4 SW 1019,5 - 0,0
15.12.2018 19:00:00 8,7 -0,1 2 1 3 2 SSE 1019,4 25 0,0
15.12.2018 18:00:00 8,6 -0,2 0 0 9 5 N 1019,3 - 0,0
15.12.2018 17:00:00 9,2 0,1 4 2 8 5 N 1018,9 - 0,0
15.12.2018 16:00:00 9,9 -0,3 5 3 8 5 NNW 1018,5 25 0,0
15.12.2018 15:00:00 11,1 -2,7 2 1 15 8 NW 1018,0 - 0,0
15.12.2018 14:00:00 11,5 0,0 8 4 20 11 SSW 1017,6 - 0,0
15.12.2018 13:00:00 11,3 2,6 4 2 15 8 WSW 1018,0 30 0,0
15.12.2018 12:00:00 9,9 1,3 5 3 13 7 NE 1018,0 - 0,0
15.12.2018 11:00:00 9,6 1,0 5 3 15 8 N 1018,3 - 0,0
15.12.2018 10:00:00 9,0 1,4 9 5 15 8 NE 1018,3 - 0,0
15.12.2018 09:00:00 8,5 0,9 3 2 12 7 NNW 1017,6 - 0,0
15.12.2018 08:00:00 7,9 0,4 9 5 15 8 SSE 1016,9 - 0,0
15.12.2018 07:00:00 7,6 1,0 11 6 25 14 E 1016,4 20 0,0
15.12.2018 06:00:00 7,6 0,8 13 7 21 11 SE 1016,1 - 0,0
15.12.2018 05:00:00 7,6 1,2 15 8 21 11 ESE 1015,9 - 0,0
15.12.2018 04:00:00 7,3 1,8 14 8 19 10 E 1015,7 15 0,0
15.12.2018 03:00:00 7,3 1,1 16 9 20 11 E 1015,3 - 0,0
15.12.2018 02:00:00 8,7 0,2 8 4 20 11 ESE 1014,9 - 0,0
15.12.2018 01:00:00 8,6 0,6 16 9 21 11 S 1014,4 - 0,0
15.12.2018 00:00:00 8,6 0,6 11 6 14 7 SSE 1014,7 - 0,0
14.12.2018 23:00:00 8,5 0,7 8 4 17 9 ESE 1014,5 - 0,0
14.12.2018 22:00:00 8,2 0,7 11 6 18 10 SE 1014,3 - 0,0
14.12.2018 21:00:00 8,6 1,0 10 5 16 9 ESE 1014,3 - 0,0
14.12.2018 20:00:00 8,2 1,1 13 7 23 13 SE 1013,9 - 0,0
14.12.2018 19:00:00 8,1 1,2 19 10 31 17 E 1013,4 20 0,0
14.12.2018 18:00:00 8,0 0,7 24 13 37 20 E 1012,7 - 0,0
14.12.2018 17:00:00 8,6 1,5 21 11 41 22 E 1012,4 - 0,0
14.12.2018 16:00:00 9,7 2,1 31 17 44 24 ENE 1011,8 - 0,0
14.12.2018 15:00:00 9,9 3,0 35 19 49 27 ENE 1011,3 - 0,0
14.12.2018 14:00:00 9,3 3,5 35 19 54 29 NE 1011,1 - 0,0
14.12.2018 13:00:00 9,4 4,2 40 22 57 31 NE 1011,3 - 0,0
14.12.2018 12:00:00 9,2 4,0 41 22 54 29 NE 1010,9 - 0,0
14.12.2018 11:00:00 9,0 5,0 35 19 48 26 ENE 1010,7 - 0,0
14.12.2018 10:00:00 8,8 5,4 29 16 44 24 ENE 1010,3 - 0,0
14.12.2018 09:00:00 8,7 5,3 31 17 51 28 ENE 1009,5 - 0,0
14.12.2018 08:00:00 8,3 5,2 36 19 55 30 ENE 1008,3 - 0,0
14.12.2018 07:00:00 8,1 4,9 41 22 55 30 NE 1007,8 16 0,0
14.12.2018 06:00:00 7,7 5,3 37 20 59 32 ENE 1007,6 - 0,6
14.12.2018 05:00:00 7,9 5,4 40 22 57 31 ENE 1007,9 - 0,4
14.12.2018 04:00:00 8,2 5,3 36 19 54 29 ENE 1007,8 15 0,0
14.12.2018 03:00:00 8,3 5,4 40 21 66 36 ENE 1008,0 - 0,2
14.12.2018 02:00:00 8,5 5,9 46 25 71 39 ENE 1007,4 - 0,0
14.12.2018 01:00:00 8,7 6,0 48 26 74 40 ENE 1007,4 - 0,2
14.12.2018 00:00:00 8,4 5,9 54 29 77 42 ENE 1007,5 - 0,0
13.12.2018 23:00:00 8,6 6,2 56 31 78 42 ENE 1006,9 - 0,4
13.12.2018 22:00:00 8,4 6,2 49 27 76 41 ENE 1006,9 - 0,6
13.12.2018 21:00:00 8,3 6,1 44 24 69 37 ENE 1007,7 - 0,8
13.12.2018 20:00:00 8,4 6,0 45 24 61 33 ENE 1007,5 - 0,8
13.12.2018 19:00:00 8,3 5,8 34 19 51 28 E 1007,8 18 0,2
13.12.2018 18:00:00 8,5 6,3 35 19 45 24 E 1008,1 - 0,0
13.12.2018 17:00:00 8,6 6,9 29 15 45 24 ENE 1008,3 - 0,8
13.12.2018 16:00:00 9,1 7,0 34 19 48 26 NE 1008,7 20 0,4
13.12.2018 15:00:00 9,1 6,4 29 15 49 26 NE 1008,8 - 0,2
13.12.2018 14:00:00 9,4 5,9 24 13 36 19 NE 1009,3 - 0,0
13.12.2018 13:00:00 9,6 6,1 28 15 37 20 NE 1009,6 - 0,0
13.12.2018 12:00:00 9,9 7,3 13 7 22 12 E 1010,1 - 0,0
13.12.2018 11:00:00 9,4 7,2 16 9 22 12 E 1010,9 - 0,0
13.12.2018 10:00:00 8,8 6,9 12 6 24 13 E 1011,2 - 0,2
13.12.2018 09:00:00 9,4 6,5 8 4 38 21 ENE 1011,5 - 0,0
13.12.2018 08:00:00 9,0 5,6 29 16 41 22 SSW 1011,0 - 2,0
13.12.2018 07:00:00 8,7 5,6 20 11 51 28 S 1011,0 15 2,8
13.12.2018 06:00:00 10,0 5,4 22 12 41 22 SW 1010,8 - 0,0
13.12.2018 05:00:00 10,0 5,8 5 3 40 22 NW 1011,1 - 0,0
13.12.2018 04:00:00 9,5 5,9 17 9 41 22 SW 1011,9 15 0,6
13.12.2018 03:00:00 10,0 5,4 33 18 56 31 SW 1012,3 - 0,8
13.12.2018 02:00:00 10,4 5,4 38 21 66 36 SW 1012,5 - 0,0
13.12.2018 01:00:00 11,1 4,8 15 8 28 15 SW 1013,2 - 0,0
13.12.2018 00:00:00 11,3 4,3 10 5 16 9 SW 1013,6 - 0,0
12.12.2018 23:00:00 11,5 4,0 12 6 14 8 SSW 1014,0 - 0,0
12.12.2018 22:00:00 11,8 4,7 6 3 11 6 S 1013,9 - 0,0
12.12.2018 21:00:00 11,8 4,3 8 5 10 5 S 1014,2 - 0,0
12.12.2018 20:00:00 11,8 4,3 5 3 8 4 S 1014,8 - 0,0
12.12.2018 19:00:00 11,9 4,1 6 3 8 5 SSW 1014,7 - 0,0
12.12.2018 18:00:00 11,8 3,5 6 3 7 4 WSW 1014,8 - 0,0
12.12.2018 17:00:00 12,1 3,6 0 0 5 3 N 1015,0 - 0,0
12.12.2018 16:00:00 12,5 4,0 4 2 12 7 NNE 1015,5 25 0,0
12.12.2018 15:00:00 13,0 4,7 9 5 16 9 ENE 1015,2 - 0,0
12.12.2018 14:00:00 12,9 5,8 5 3 11 6 NNE 1015,6 - 0,0
12.12.2018 13:00:00 12,9 6,5 7 4 17 9 NW 1016,3 35 0,0
12.12.2018 12:00:00 13,0 6,6 7 4 10 6 W 1017,1 - 0,0
12.12.2018 11:00:00 13,4 6,7 3 1 7 4 W 1017,4 - 0,0
12.12.2018 10:00:00 11,9 6,0 5 3 8 4 W 1017,5 35 0,0
12.12.2018 09:00:00 11,4 5,3 0 0 10 6 N 1017,4 - 0,0
12.12.2018 08:00:00 11,0 4,2 8 5 12 7 SSE 1017,0 - 0,0
12.12.2018 07:00:00 10,7 5,0 5 3 6 4 ESE 1016,8 20 0,0
12.12.2018 06:00:00 11,0 4,4 3 2 6 3 SE 1016,7 - 0,0
12.12.2018 05:00:00 11,5 5,1 3 2 4 2 S 1016,8 - 0,0
12.12.2018 04:00:00 11,1 4,5 4 2 7 4 SE 1017,3 - 0,0
12.12.2018 03:00:00 11,4 4,6 4 2 14 8 ESE 1017,6 - 0,0
12.12.2018 02:00:00 11,3 4,0 15 8 16 9 SSE 1017,3 - 0,0
12.12.2018 01:00:00 11,0 5,1 3 2 6 3 SE 1017,7 - 0,0
12.12.2018 00:00:00 11,5 5,1 0 0 12 7 N 1017,8 - 0,0
11.12.2018 23:00:00 11,3 3,8 9 5 12 7 SSE 1017,9 - 0,0
11.12.2018 22:00:00 11,1 4,1 4 2 6 3 ESE 1017,9 - 0,0
11.12.2018 21:00:00 11,5 3,5 5 3 9 5 WSW 1017,5 - 0,0
11.12.2018 20:00:00 11,3 3,1 3 2 17 9 SE 1017,3 - 0,0
11.12.2018 19:00:00 11,3 1,0 12 6 21 11 SE 1017,1 18 0,0
11.12.2018 18:00:00 11,5 5,6 17 9 23 12 S 1016,8 - 0,0
11.12.2018 17:00:00 12,3 2,4 13 7 21 11 SSW 1016,4 - 0,0
11.12.2018 16:00:00 13,3 1,6 16 9 31 17 NE 1016,4 18 0,0
11.12.2018 15:00:00 13,8 3,0 17 9 25 13 NE 1016,5 - 0,0
11.12.2018 14:00:00 14,3 3,7 13 7 19 11 NE 1016,7 - 0,0
11.12.2018 13:00:00 13,5 6,8 8 4 18 10 N 1017,2 18 0,0
11.12.2018 12:00:00 13,3 4,4 15 8 21 12 NE 1017,4 - 0,0

tt = Température de l'air
td = dewpoint
ff = Vitesse du vent
fx = gusts
dd = Direction du vent
ppp = reduced air pressure
vv = visibility
rr = Quantités de précipitations

stations d'obs. à proximité